,,Stat6,,Stat2,,Stat8,,Stat9,,Stat10,,Wind1,,Wind1,
time,status,PA1M_AVG,status,PR1M_SUM,status,RH1M_AVG,status,SR1M_AVG,status,TA1M_AVG,status,W1dAve1m,status,W1sAve1m,
2005-10-16, 00:00:00,VALID,919.644,VALID,0,VALID,100,VALID,-0.0679233,VALID,19.4811,VALID,13,VALID,0.850977,
2005-10-16, 00:01:00,VALID,919.621,VALID,0,VALID,100,VALID,-0.101885,VALID,19.4453,VALID,14,VALID,0.936012,
2005-10-16, 00:02:00,VALID,919.601,VALID,0,VALID,100,VALID,-0.0679233,VALID,19.413,VALID,10,VALID,0.919331,
2005-10-16, 00:03:00,VALID,919.581,VALID,0,VALID,100,VALID,-0.0679233,VALID,19.3877,VALID,5,VALID,0.586319,
2005-10-16, 00:04:00,VALID,919.548,VALID,0,VALID,100,VALID,-0.101885,VALID,19.3653,VALID,342,VALID,0.2629,
2005-10-16, 00:05:00,VALID,919.518,VALID,0,VALID,100,VALID,-0.0849042,VALID,19.3581,VALID,354,VALID,0.444444,
2005-10-16, 00:06:00,VALID,919.505,VALID,0,VALID,100,VALID,-0.0849042,VALID,19.3621,VALID,30,VALID,0.852407,
2005-10-16, 00:07:00,VALID,919.498,VALID,0,VALID,100,VALID,-0.0849042,VALID,19.3487,VALID,27,VALID,0.762821,
2005-10-16, 00:08:00,VALID,919.483,VALID,0,VALID,100,VALID,-0.0679233,VALID,19.3653,VALID,27,VALID,0.836119,
2005-10-16, 00:09:00,VALID,919.486,VALID,0,VALID,100,VALID,-0.0849042,VALID,19.3847,VALID,25,VALID,0.925977,
2005-10-16, 00:10:00,VALID,919.48,VALID,0,VALID,100,VALID,-0.0849042,VALID,19.4041,VALID,21,VALID,0.657774,
2005-10-16, 00:11:00,VALID,919.473,VALID,0,VALID,100,VALID,-0.0849042,VALID,19.4071,VALID,7,VALID,0.511186,
2005-10-16, 00:12:00,VALID,919.435,VALID,0,VALID,100,VALID,-0.0849042,VALID,19.3946,VALID,17,VALID,0.772693,
2005-10-16, 00:13:00,VALID,919.406,VALID,0,VALID,100,VALID,-0.101885,VALID,19.3941,VALID,1,VALID,0.738281,
2005-10-16, 00:14:00,VALID,919.375,VALID,0,VALID,100,VALID,-0.0509425,VALID,19.3946,VALID,356,VALID,0.546875,
2005-10-16, 00:15:00,VALID,919.355,VALID,0,VALID,100,VALID,-0.101885,VALID,19.4041,VALID,354,VALID,0.295967,
2005-10-16, 00:16:00,VALID,919.331,VALID,0,VALID,100,VALID,-0.0849042,VALID,19.4041,VALID,354,VALID,0.631696,
2005-10-16, 00:17:00,VALID,919.331,VALID,0,VALID,100,VALID,-0.0339617,VALID,19.4001,VALID,18,VALID,1.02548,
2005-10-16, 00:18:00,VALID,919.338,VALID,0,VALID,100,VALID,0,VALID,19.3929,VALID,23,VALID,0.921007,
2005-10-16, 00:19:00,VALID,919.335,VALID,0,VALID,100,VALID,0,VALID,19.3994,VALID,5,VALID,0.878993,
2005-10-16, 00:20:00,VALID,919.334,VALID,0,VALID,100,VALID,0,VALID,19.3966,VALID,12,VALID,0.941707,
2005-10-16, 00:21:00,VALID,919.313,VALID,0,VALID,100,VALID,0.0169808,VALID,19.3865,VALID,20,VALID,1.00324,
2005-10-16, 00:22:00,VALID,919.301,VALID,0,VALID,100,VALID,0.0169808,VALID,19.3865,VALID,1,VALID,0.822311,
2005-10-16, 00:23:00,VALID,919.306,VALID,0,VALID,100,VALID,0,VALID,19.3671,VALID,323,VALID,0.765443,
2005-10-16, 00:24:00,VALID,919.291,VALID,0,VALID,100,VALID,0.0339617,VALID,19.3611,VALID,300,VALID,0.280649,
2005-10-16, 00:25:00,VALID,919.271,VALID,0,VALID,100,VALID,0,VALID,19.3606,VALID,211,VALID,0.557227,
2005-10-16, 00:26:00,VALID,919.254,VALID,0,VALID,100,VALID,0,VALID,19.3832,VALID,195,VALID,0.44478,
2005-10-16, 00:27:00,VALID,919.222,VALID,0,VALID,100,VALID,0.0169808,VALID,19.3733,VALID,231,VALID,0.523615,
2005-10-16, 00:28:00,VALID,919.185,VALID,0,VALID,100,VALID,-0.0169808,VALID,19.4091,VALID,17,VALID,0.931323,
2005-10-16, 00:29:00,VALID,919.168,VALID,0,VALID,100,VALID,0.0679233,VALID,19.4416,VALID,35,VALID,0.303961,
2005-10-16, 00:30:00,VALID,919.159,VALID,0,VALID,100,VALID,0,VALID,19.4503,VALID,33,VALID,0.261347,
2005-10-16, 00:31:00,VALID,919.174,VALID,0,VALID,100,VALID,0.0339617,VALID,19.464,VALID,30,VALID,0.150152,
2005-10-16, 00:32:00,VALID,919.149,VALID,0,VALID,100,VALID,-0.0339617,VALID,19.458,VALID,20,VALID,0.394531,
2005-10-16, 00:33:00,VALID,919.137,VALID,0,VALID,100,VALID,-0.0849042,VALID,19.4227,VALID,72,VALID,0.339367,
2005-10-16, 00:34:00,VALID,919.127,VALID,0,VALID,100,VALID,-0.0509425,VALID,19.4294,VALID,135,VALID,0.101017,
2005-10-16, 00:35:00,VALID,919.109,VALID,0,VALID,100,VALID,-0.0849042,VALID,19.4498,VALID,50,VALID,0.552689,
2005-10-16, 00:36:00,VALID,919.093,VALID,0,VALID,100,VALID,-0.0679233,VALID,19.4553,VALID,50,VALID,0.0890625,
2005-10-16, 00:37:00,VALID,919.084,VALID,0,VALID,100,VALID,-0.0849042,VALID,19.4649,VALID,32,VALID,0.259171,
2005-10-16, 00:38:00,VALID,919.057,VALID,0,VALID,100,VALID,-0.0849042,VALID,19.4654,VALID,3,VALID,0.630451,
2005-10-16, 00:39:00,VALID,919.045,VALID,0,VALID,100,VALID,-0.0509425,VALID,19.4396,VALID,11,VALID,0.93285,
2005-10-16, 00:40:00,VALID,919.039,VALID,0,VALID,100,VALID,-0.0339617,VALID,19.4361,VALID,21,VALID,1.17039,
2005-10-16, 00:41:00,VALID,919.048,VALID,0,VALID,100,VALID,-0.0849042,VALID,19.4463,VALID,314,VALID,0.621626,
2005-10-16, 00:42:00,VALID,919.013,VALID,0,VALID,100,VALID,-0.0679233,VALID,19.4334,VALID,8,VALID,0.928925,
2005-10-16, 00:43:00,VALID,918.99,VALID,0,VALID,100,VALID,-0.0849042,VALID,19.4329,VALID,8,VALID,1.4564,
2005-10-16, 00:44:00,VALID,918.961,VALID,0,VALID,100,VALID,-0.0679233,VALID,19.4068,VALID,8,VALID,1.35195,
2005-10-16, 00:45:00,VALID,918.968,VALID,0,VALID,100,VALID,-0.101885,VALID,19.3974,VALID,9,VALID,1.36979,
2005-10-16, 00:46:00,VALID,918.978,VALID,0,VALID,100,VALID,-0.101885,VALID,19.3939,VALID,13,VALID,0.973437,
2005-10-16, 00:47:00,VALID,918.983,VALID,0,VALID,100,VALID,-0.0679233,VALID,19.3842,VALID,14,VALID,0.477307,
2005-10-16, 00:48:00,VALID,918.986,VALID,0,VALID,100,VALID,-0.0849042,VALID,19.3745,VALID,23,VALID,0.0368304,
2005-10-16, 00:49:00,VALID,918.983,VALID,0,VALID,100,VALID,-0.0679233,VALID,19.3748,VALID,24,VALID,0.680246,
2005-10-16, 00:50:00,VALID,918.975,VALID,0,VALID,100,VALID,-0.0679233,VALID,19.4003,VALID,14,VALID,0.554497,
2005-10-16, 00:51:00,VALID,918.988,VALID,0,VALID,100,VALID,-0.0509425,VALID,19.42,VALID,7,VALID,0.283918,
2005-10-16, 00:52:00,VALID,918.977,VALID,0,VALID,100,VALID,-0.0679233,VALID,19.4326,VALID,7,VALID,0.0327744,
2005-10-16, 00:53:00,VALID,918.957,VALID,0,VALID,100,VALID,-0.0679233,VALID,19.4294,VALID,9,VALID,0.645275,
2005-10-16, 00:54:00,VALID,918.951,VALID,0,VALID,100,VALID,-0.0509425,VALID,19.4259,VALID,20,VALID,1.08346,
2005-10-16, 00:55:01,VALID,918.94,VALID,0,VALID,100,VALID,-0.0339617,VALID,19.4389,VALID,21,VALID,1.16499,
2005-10-16, 00:56:00,VALID,918.931,VALID,0,VALID,100,VALID,-0.0509425,VALID,19.4267,VALID,21,VALID,1.22088,
2005-10-16, 00:57:01,VALID,918.944,VALID,0,VALID,100,VALID,-0.0509425,VALID,19.3999,VALID,10,VALID,1.07422,
2005-10-16, 00:58:00,VALID,918.947,VALID,0,VALID,100,VALID,-0.0679233,VALID,19.4167,VALID,4,VALID,0.754278,
2005-10-16, 00:59:00,VALID,918.942,VALID,0,VALID,100,VALID,-0.0849042,VALID,19.4036,VALID,17,VALID,0.628811,
2005-10-16, 01:00:00,VALID,918.94,VALID,0,VALID,100,VALID,-0.0509425,VALID,19.41,VALID,23,VALID,0.791066,
2005-10-16, 01:01:00,VALID,918.938,VALID,0,VALID,100,VALID,-0.0679233,VALID,19.4361,VALID,356,VALID,0.558321,
2005-10-16, 01:02:00,VALID,918.958,VALID,0,VALID,100,VALID,-0.0509425,VALID,19.4421,VALID,21,VALID,0.554497,
2005-10-16, 01:03:00,VALID,918.976,VALID,0,VALID,100,VALID,0,VALID,19.4679,VALID,21,VALID,0.346007,
2005-10-16, 01:04:00,VALID,918.976,VALID,0,VALID,100,VALID,-0.0509425,VALID,19.4714,VALID,354,VALID,0.633721,
2005-10-16, 01:05:00,VALID,918.991,VALID,0,VALID,100,VALID,-0.0169808,VALID,19.4356,VALID,9,VALID,0.568677,
2005-10-16, 01:06:01,VALID,918.993,VALID,0,VALID,100,VALID,-0.0509425,VALID,19.4292,VALID,28,VALID,0.208452,
2005-10-16, 01:07:01,VALID,918.963,VALID,0,VALID,100,VALID,-0.0679233,VALID,19.449,VALID,28,VALID,0.163699,
2005-10-16, 01:08:00,VALID,918.93,VALID,0,VALID,100,VALID,-0.0509425,VALID,19.4456,VALID,27,VALID,0.412109,
2005-10-16, 01:09:01,VALID,918.888,VALID,0,VALID,100,VALID,-0.0169808,VALID,19.4585,VALID,20,VALID,1.08721,
2005-10-16, 01:10:00,VALID,918.859,VALID,0,VALID,100,VALID,-0.0679233,VALID,19.4617,VALID,10,VALID,0.909801,
2005-10-16, 01:11:00,VALID,918.818,VALID,0,VALID,100,VALID,-0.0339617,VALID,19.4329,VALID,20,VALID,0.955433,
2005-10-16, 01:12:00,VALID,918.803,VALID,0,VALID,100,VALID,-0.0339617,VALID,19.41,VALID,24,VALID,0.709484,
2005-10-16, 01:13:00,VALID,918.781,VALID,0,VALID,100,VALID,-0.0849042,VALID,19.4036,VALID,20,VALID,0.965199,
2005-10-16, 01:14:01,VALID,918.767,VALID,0,VALID,100,VALID,-0.0339617,VALID,19.4135,VALID,23,VALID,0.911932,
2005-10-16, 01:15:01,VALID,918.773,VALID,0,VALID,100,VALID,-0.0679233,VALID,19.4431,VALID,16,VALID,0.36814,
2005-10-16, 01:16:00,VALID,918.772,VALID,0,VALID,100,VALID,-0.0679233,VALID,19.4426,VALID,15,VALID,0.35016,
2005-10-16, 01:17:00,VALID,918.767,VALID,0,VALID,100,VALID,-0.101885,VALID,19.4423,VALID,14,VALID,0.880022,
2005-10-16, 01:18:00,VALID,918.745,VALID,0,VALID,100,VALID,-0.0679233,VALID,19.4525,VALID,17,VALID,0.930859,
2005-10-16, 01:19:01,VALID,918.757,VALID,0,VALID,100,VALID,-0.0849042,VALID,19.4428,VALID,8,VALID,0.887074,
2005-10-16, 01:20:00,VALID,918.763,VALID,0,VALID,100,VALID,-0.0679233,VALID,19.4297,VALID,14,VALID,0.782703,
2005-10-16, 01:21:00,VALID,918.761,VALID,0,VALID,100,VALID,-0.0679233,VALID,19.4234,VALID,18,VALID,0.78452,
2005-10-16, 01:22:00,VALID,918.765,VALID,0,VALID,100,VALID,-0.101885,VALID,19.4269,VALID,21,VALID,1.37233,
2005-10-16, 01:23:00,VALID,918.762,VALID,0,VALID,100,VALID,-0.101885,VALID,19.4297,VALID,23,VALID,1.45796,
2005-10-16, 01:24:00,VALID,918.762,VALID,0,VALID,100,VALID,-0.101885,VALID,19.4237,VALID,22,VALID,1.47017,
2005-10-16, 01:25:00,VALID,918.754,VALID,0,VALID,100,VALID,-0.101885,VALID,19.4138,VALID,23,VALID,1.19959,
2005-10-16, 01:26:00,VALID,918.723,VALID,0,VALID,100,VALID,-0.0849042,VALID,19.4232,VALID,25,VALID,1.36458,
2005-10-16, 01:27:01,VALID,918.71,VALID,0,VALID,100,VALID,-0.0679233,VALID,19.4202,VALID,24,VALID,1.66127,
2005-10-16, 01:28:00,VALID,918.693,VALID,0,VALID,100,VALID,-0.0849042,VALID,19.4272,VALID,27,VALID,1.69949,
2005-10-16, 01:29:00,VALID,918.695,VALID,0,VALID,100,VALID,-0.0849042,VALID,19.4165,VALID,22,VALID,0.847842,
2005-10-16, 01:30:01,VALID,918.692,VALID,0,VALID,100,VALID,-0.101885,VALID,19.4269,VALID,18,VALID,0.762695,
2005-10-16, 01:31:00,VALID,918.674,VALID,0,VALID,100,VALID,-0.0509425,VALID,19.4172,VALID,21,VALID,1.43973,
2005-10-16, 01:32:01,VALID,918.657,VALID,0,VALID,100,VALID,-0.0679233,VALID,19.3936,VALID,15,VALID,1.8041,
2005-10-16, 01:33:00,VALID,918.659,VALID,0,VALID,100,VALID,0,VALID,19.3574,VALID,13,VALID,1.74805,
2005-10-16, 01:34:00,VALID,918.663,VALID,0,VALID,100,VALID,0,VALID,19.3479,VALID,21,VALID,1.62035,
2005-10-16, 01:35:01,VALID,918.656,VALID,0,VALID,100,VALID,0,VALID,19.3311,VALID,12,VALID,1.4641,
2005-10-16, 01:36:00,VALID,918.648,VALID,0,VALID,100,VALID,0.0169808,VALID,19.2955,VALID,6,VALID,1.08281,
2005-10-16, 01:37:00,VALID,918.656,VALID,0,VALID,100,VALID,0.0679233,VALID,19.3025,VALID,15,VALID,1.15941,
2005-10-16, 01:38:01,VALID,918.668,VALID,0,VALID,100,VALID,0.0849042,VALID,19.2958,VALID,13,VALID,0.994549,
2005-10-16, 01:39:01,VALID,918.669,VALID,0,VALID,100,VALID,0.0339617,VALID,19.3186,VALID,19,VALID,1.09623,
2005-10-16, 01:40:00,VALID,918.674,VALID,0,VALID,100,VALID,0.0339617,VALID,19.296,VALID,26,VALID,1.03795,
2005-10-16, 01:41:00,VALID,918.667,VALID,0,VALID,100,VALID,0.0169808,VALID,19.3124,VALID,32,VALID,0.794792,
2005-10-16, 01:42:00,VALID,918.658,VALID,0,VALID,100,VALID,0,VALID,19.3092,VALID,18,VALID,0.796875,
2005-10-16, 01:43:01,VALID,918.64,VALID,0,VALID,100,VALID,0.0339617,VALID,19.3189,VALID,2,VALID,0.614524,
2005-10-16, 01:44:00,VALID,918.633,VALID,0,VALID,100,VALID,0.0169808,VALID,19.2926,VALID,16,VALID,0.554129,
2005-10-16, 01:45:01,VALID,918.61,VALID,0,VALID,100,VALID,0.0169808,VALID,19.2861,VALID,343,VALID,0.393973,
2005-10-16, 01:46:01,VALID,918.6,VALID,0,VALID,100,VALID,0,VALID,19.2801,VALID,29,VALID,0.416016,
2005-10-16, 01:47:01,VALID,918.586,VALID,0,VALID,100,VALID,0.0339617,VALID,19.3025,VALID,359,VALID,0.166606,
2005-10-16, 01:48:01,VALID,918.576,VALID,0,VALID,100,VALID,0.0339617,VALID,19.3119,VALID,357,VALID,0.268674,
2005-10-16, 01:49:00,VALID,918.567,VALID,0,VALID,100,VALID,0.0849042,VALID,19.3087,VALID,8,VALID,0.471418,
2005-10-16, 01:50:00,VALID,918.555,VALID,0,VALID,100,VALID,0.0509425,VALID,19.332,VALID,11,VALID,0.472834,
2005-10-16, 01:51:01,VALID,918.544,VALID,0,VALID,100,VALID,0.0679233,VALID,19.3378,VALID,11,VALID,0.0816761,
2005-10-16, 01:52:00,VALID,918.515,VALID,0,VALID,100,VALID,0.0169808,VALID,19.3477,VALID,37,VALID,0.621911,
2005-10-16, 01:53:00,VALID,918.489,VALID,0,VALID,100,VALID,0.0169808,VALID,19.3542,VALID,27,VALID,0.652716,
2005-10-16, 01:54:00,VALID,918.493,VALID,0,VALID,100,VALID,0.0679233,VALID,19.3604,VALID,18,VALID,0.523438,
2005-10-16, 01:55:01,VALID,918.497,VALID,0,VALID,100,VALID,0.0509425,VALID,19.3765,VALID,21,VALID,0.494004,
2005-10-16, 01:56:00,VALID,918.515,VALID,0,VALID,100,VALID,0.0169808,VALID,19.3802,VALID,21,VALID,0.136719,
2005-10-16, 01:57:00,VALID,918.498,VALID,0,VALID,100,VALID,0.0509425,VALID,19.3636,VALID,20,VALID,0.430233,
2005-10-16, 01:58:00,VALID,918.487,VALID,0,VALID,100,VALID,0.0509425,VALID,19.3539,VALID,8,VALID,0.670313,
2005-10-16, 01:59:01,VALID,918.464,VALID,0,VALID,100,VALID,0.0679233,VALID,19.3182,VALID,356,VALID,0.714177,
2005-10-16, 02:00:00,VALID,918.445,VALID,0,VALID,100,VALID,0.0169808,VALID,19.3114,VALID,12,VALID,0.608487,
2005-10-16, 02:01:00,VALID,918.424,VALID,0,VALID,100,VALID,0.0169808,VALID,19.3154,VALID,18,VALID,0.797057,
2005-10-16, 02:02:00,VALID,918.388,VALID,0,VALID,100,VALID,0.0169808,VALID,19.3358,VALID,28,VALID,1.00908,
2005-10-16, 02:03:01,VALID,918.35,VALID,0,VALID,100,VALID,-0.0339617,VALID,19.3325,VALID,23,VALID,1.09545,
2005-10-16, 02:04:00,VALID,918.336,VALID,0,VALID,100,VALID,0,VALID,19.3325,VALID,26,VALID,1.15062,
2005-10-16, 02:05:01,VALID,918.327,VALID,0,VALID,100,VALID,-0.0169808,VALID,19.3487,VALID,27,VALID,1.18714,
2005-10-16, 02:06:00,VALID,918.32,VALID,0,VALID,100,VALID,-0.0509425,VALID,19.3613,VALID,21,VALID,1.29705,
2005-10-16, 02:07:01,VALID,918.32,VALID,0,VALID,100,VALID,-0.0339617,VALID,19.3782,VALID,25,VALID,1.21708,
2005-10-16, 02:08:01,VALID,918.325,VALID,0,VALID,100,VALID,-0.0169808,VALID,19.3646,VALID,8,VALID,0.993459,
2005-10-16, 02:09:01,VALID,918.316,VALID,0,VALID,100,VALID,-0.0169808,VALID,19.297,VALID,338,VALID,0.772529,
2005-10-16, 02:10:00,VALID,918.317,VALID,0,VALID,100,VALID,-0.0169808,VALID,19.2679,VALID,358,VALID,0.36101,
2005-10-16, 02:11:00,VALID,918.31,VALID,0,VALID,100,VALID,0,VALID,19.262,VALID,264,VALID,0.362233,
2005-10-16, 02:12:00,VALID,918.307,VALID,0,VALID,100,VALID,-0.0509425,VALID,19.259,VALID,124,VALID,0.263529,
2005-10-16, 02:13:00,VALID,918.292,VALID,0,VALID,100,VALID,-0.0169808,VALID,19.2582,VALID,35,VALID,0.283203,
2005-10-16, 02:14:01,VALID,918.261,VALID,0,VALID,100,VALID,0,VALID,19.2679,VALID,34,VALID,0.141158,
2005-10-16, 02:15:00,VALID,918.244,VALID,0,VALID,100,VALID,-0.0509425,VALID,19.2841,VALID,15,VALID,0.581759,
2005-10-16, 02:16:00,VALID,918.239,VALID,0,VALID,100,VALID,-0.0169808,VALID,19.2809,VALID,11,VALID,0.486683,
2005-10-16, 02:17:00,VALID,918.221,VALID,0,VALID,100,VALID,-0.0169808,VALID,19.294,VALID,22,VALID,0.547619,
2005-10-16, 02:18:00,VALID,918.203,VALID,0,VALID,100,VALID,-0.0339617,VALID,19.3007,VALID,25,VALID,1.26823,
2005-10-16, 02:19:01,VALID,918.209,VALID,0,VALID,100,VALID,-0.0339617,VALID,19.2871,VALID,24,VALID,1.07449,
2005-10-16, 02:20:01,VALID,918.217,VALID,0,VALID,100,VALID,-0.0339617,VALID,19.2841,VALID,24,VALID,0.465843,
2005-10-16, 02:21:00,VALID,918.2,VALID,0,VALID,100,VALID,-0.0509425,VALID,19.2809,VALID,30,VALID,0.25109,
2005-10-16, 02:22:01,VALID,918.197,VALID,0,VALID,100,VALID,0,VALID,19.2871,VALID,33,VALID,0.127976,
2005-10-16, 02:23:01,VALID,918.197,VALID,0,VALID,100,VALID,-0.0169808,VALID,19.2675,VALID,44,VALID,0.634084,
2005-10-16, 02:24:00,VALID,918.2,VALID,0,VALID,100,VALID,-0.0339617,VALID,19.2709,VALID,21,VALID,0.86441,
2005-10-16, 02:25:00,VALID,918.177,VALID,0,VALID,100,VALID,0,VALID,19.2968,VALID,18,VALID,0.205729,
2005-10-16, 02:26:00,VALID,918.158,VALID,0,VALID,100,VALID,-0.0169808,VALID,19.2612,VALID,302,VALID,0.497275,
2005-10-16, 02:27:00,VALID,918.168,VALID,0,VALID,100,VALID,-0.0169808,VALID,19.2423,VALID,231,VALID,0.0993304,
2005-10-16, 02:28:00,VALID,918.145,VALID,0,VALID,100,VALID,0,VALID,19.2615,VALID,231,VALID,0,
2005-10-16, 02:29:01,VALID,918.127,VALID,0,VALID,100,VALID,-0.0339617,VALID,19.258,VALID,231,VALID,0,
2005-10-16, 02:30:00,VALID,918.122,VALID,0,VALID,100,VALID,0,VALID,19.2414,VALID,231,VALID,0.201791,
2005-10-16, 02:31:00,VALID,918.121,VALID,0,VALID,100,VALID,0,VALID,19.2645,VALID,231,VALID,0.156613,
2005-10-16, 02:32:00,VALID,918.113,VALID,0,VALID,100,VALID,-0.0169808,VALID,19.2781,VALID,215,VALID,0.147104,
2005-10-16, 02:33:01,VALID,918.122,VALID,0,VALID,100,VALID,-0.0169808,VALID,19.2615,VALID,201,VALID,0.145349,
2005-10-16, 02:34:00,VALID,918.125,VALID,0,VALID,100,VALID,0,VALID,19.2548,VALID,201,VALID,0.0142045,
2005-10-16, 02:35:01,VALID,918.1,VALID,0,VALID,100,VALID,-0.0169808,VALID,19.2453,VALID,201,VALID,0.0295351,
2005-10-16, 02:36:00,VALID,918.078,VALID,0,VALID,100,VALID,-0.0169808,VALID,19.2324,VALID,201,VALID,0.133371,
2005-10-16, 02:37:00,VALID,918.066,VALID,0,VALID,100,VALID,-0.0169808,VALID,19.2324,VALID,266,VALID,0.526708,
2005-10-16, 02:38:01,VALID,918.067,VALID,0,VALID,100,VALID,-0.0169808,VALID,19.2195,VALID,256,VALID,0.170015,
2005-10-16, 02:39:01,VALID,918.052,VALID,0,VALID,100,VALID,-0.0169808,VALID,19.2389,VALID,358,VALID,0.436719,
2005-10-16, 02:40:00,VALID,918.054,VALID,0,VALID,100,VALID,-0.0509425,VALID,19.2717,VALID,44,VALID,0.208274,
2005-10-16, 02:41:01,VALID,918.029,VALID,0,VALID,100,VALID,0,VALID,19.2781,VALID,44,VALID,0.000887784,
2005-10-16, 02:42:00,VALID,918.001,VALID,0,VALID,100,VALID,0,VALID,19.2846,VALID,35,VALID,0.231889,
2005-10-16, 02:43:00,VALID,917.982,VALID,0,VALID,100,VALID,-0.0169808,VALID,19.3039,VALID,34,VALID,0.0652253,
2005-10-16, 02:44:01,VALID,917.969,VALID,0.2,VALID,100,VALID,0,VALID,19.2679,VALID,34,VALID,0.0960582,
2005-10-16, 02:45:00,VALID,917.947,VALID,0,VALID,100,VALID,-0.0339617,VALID,19.258,VALID,33,VALID,0.123958,
2005-10-16, 02:46:00,VALID,917.916,VALID,0,VALID,100,VALID,-0.0169808,VALID,19.2776,VALID,33,VALID,0.11441,
2005-10-16, 02:47:00,VALID,917.901,VALID,0,VALID,100,VALID,0,VALID,19.2806,VALID,63,VALID,0.119792,
2005-10-16, 02:48:01,VALID,917.892,VALID,0,VALID,100,VALID,-0.0169808,VALID,19.2714,VALID,160,VALID,0.192224,
2005-10-16, 02:49:00,VALID,917.877,VALID,0,VALID,100,VALID,-0.0509425,VALID,19.2356,VALID,125,VALID,0.295898,
2005-10-16, 02:50:01,VALID,917.86,VALID,0,VALID,100,VALID,-0.0339617,VALID,19.226,VALID,56,VALID,0.265988,
2005-10-16, 02:51:01,VALID,917.83,VALID,0,VALID,100,VALID,0,VALID,19.2262,VALID,41,VALID,0.55221,
2005-10-16, 02:52:01,VALID,917.792,VALID,0,VALID,100,VALID,-0.0509425,VALID,19.213,VALID,13,VALID,0.862038,
2005-10-16, 02:53:01,VALID,917.765,VALID,0,VALID,100,VALID,-0.0339617,VALID,19.2299,VALID,14,VALID,1.00712,
2005-10-16, 02:54:00,VALID,917.735,VALID,0,VALID,100,VALID,-0.0339617,VALID,19.2167,VALID,20,VALID,1.18698,
2005-10-16, 02:55:01,VALID,917.723,VALID,0,VALID,100,VALID,-0.0169808,VALID,19.2331,VALID,24,VALID,1.00142,
2005-10-16, 02:56:01,VALID,917.716,VALID,0,VALID,100,VALID,-0.0169808,VALID,19.226,VALID,27,VALID,0.688058,
2005-10-16, 02:57:01,VALID,917.717,VALID,0,VALID,100,VALID,0,VALID,19.2262,VALID,25,VALID,0.746003,
2005-10-16, 02:58:01,VALID,917.692,VALID,0,VALID,100,VALID,-0.0169808,VALID,19.223,VALID,21,VALID,1.18564,
2005-10-16, 02:59:01,VALID,917.672,VALID,0,VALID,100,VALID,-0.0339617,VALID,19.2096,VALID,20,VALID,1.57129,
2005-10-16, 03:00:00,VALID,917.639,VALID,0,VALID,100,VALID,-0.0339617,VALID,19.2036,VALID,7,VALID,1.27325,
2005-10-16, 03:01:01,VALID,917.639,VALID,0,VALID,100,VALID,-0.0169808,VALID,19.142,VALID,2,VALID,0.952744,
2005-10-16, 03:02:00,VALID,917.638,VALID,0,VALID,100,VALID,0.0339617,VALID,19.1097,VALID,1,VALID,0.773275,
2005-10-16, 03:03:01,VALID,917.635,VALID,0,VALID,100,VALID,0.0849042,VALID,19.0732,VALID,354,VALID,0.449041,
2005-10-16, 03:04:01,VALID,917.628,VALID,0,VALID,100,VALID,0.101885,VALID,19.0677,VALID,344,VALID,0.829723,
2005-10-16, 03:05:01,VALID,917.622,VALID,0,VALID,100,VALID,0.0679233,VALID,19.025,VALID,311,VALID,0.664453,
2005-10-16, 03:06:00,VALID,917.624,VALID,0,VALID,100,VALID,0.0679233,VALID,19.0019,VALID,313,VALID,0.290015,
2005-10-16, 03:07:01,VALID,917.628,VALID,0,VALID,100,VALID,0.101885,VALID,19.0141,VALID,18,VALID,0.602289,
2005-10-16, 03:08:01,VALID,917.614,VALID,0,VALID,100,VALID,0.0849042,VALID,19.0345,VALID,18,VALID,0.594893,
2005-10-16, 03:09:01,VALID,917.64,VALID,0,VALID,100,VALID,0.101885,VALID,19.0312,VALID,16,VALID,0.380208,
2005-10-16, 03:10:01,VALID,917.644,VALID,0,VALID,100,VALID,0.0849042,VALID,19.0156,VALID,16,VALID,0.284549,
2005-10-16, 03:11:01,VALID,917.651,VALID,0,VALID,100,VALID,0.0849042,VALID,19.0183,VALID,355,VALID,0.627548,
2005-10-16, 03:12:01,VALID,917.64,VALID,0,VALID,100,VALID,0.0679233,VALID,19.0186,VALID,355,VALID,1.30283,
2005-10-16, 03:13:01,VALID,917.641,VALID,0,VALID,100,VALID,0.0849042,VALID,18.992,VALID,9,VALID,0.667081,
2005-10-16, 03:14:01,VALID,917.623,VALID,0,VALID,100,VALID,0.101885,VALID,18.992,VALID,25,VALID,0.851376,
2005-10-16, 03:15:01,VALID,917.609,VALID,0,VALID,100,VALID,0.101885,VALID,19.0079,VALID,9,VALID,0.993945,
2005-10-16, 03:16:01,VALID,917.612,VALID,0,VALID,100,VALID,0.0679233,VALID,19.0183,VALID,24,VALID,0.907315,
2005-10-16, 03:17:01,VALID,917.591,VALID,0,VALID,100,VALID,0.0339617,VALID,19.0054,VALID,9,VALID,1.37607,
2005-10-16, 03:18:01,VALID,917.595,VALID,0,VALID,100,VALID,0,VALID,18.9902,VALID,11,VALID,1.59766,
2005-10-16, 03:19:01,VALID,917.607,VALID,0,VALID,100,VALID,0,VALID,18.9904,VALID,7,VALID,1.51776,
2005-10-16, 03:20:01,VALID,917.604,VALID,0,VALID,100,VALID,-0.0339617,VALID,18.9907,VALID,13,VALID,1.91589,
2005-10-16, 03:21:01,VALID,917.607,VALID,0,VALID,100,VALID,-0.0509425,VALID,18.9914,VALID,16,VALID,1.51154,
2005-10-16, 03:22:01,VALID,917.58,VALID,0,VALID,100,VALID,-0.0679233,VALID,18.9882,VALID,346,VALID,1.4801,
2005-10-16, 03:23:01,VALID,917.559,VALID,0,VALID,100,VALID,-0.0339617,VALID,18.9452,VALID,344,VALID,1.32601,
2005-10-16, 03:24:01,VALID,917.543,VALID,0,VALID,100,VALID,-0.0509425,VALID,18.9457,VALID,355,VALID,1.09896,
2005-10-16, 03:25:01,VALID,917.519,VALID,0,VALID,100,VALID,-0.0339617,VALID,18.9554,VALID,9,VALID,1.09135,
2005-10-16, 03:26:01,VALID,917.512,VALID,0,VALID,100,VALID,-0.0339617,VALID,18.9651,VALID,347,VALID,0.945884,
2005-10-16, 03:27:00,VALID,917.507,VALID,0,VALID,100,VALID,-0.0169808,VALID,18.9457,VALID,8,VALID,1.48679,
2005-10-16, 03:28:00,VALID,917.53,VALID,0,VALID,100,VALID,-0.0679233,VALID,18.9363,VALID,1,VALID,1.41113,
2005-10-16, 03:29:00,VALID,917.545,VALID,0,VALID,100,VALID,0,VALID,18.9355,VALID,14,VALID,0.914063,
2005-10-16, 03:30:00,VALID,917.531,VALID,0,VALID,100,VALID,-0.0169808,VALID,18.9457,VALID,351,VALID,1.2393,
2005-10-16, 03:31:00,VALID,917.521,VALID,0,VALID,100,VALID,-0.0169808,VALID,18.9358,VALID,331,VALID,0.998785,
2005-10-16, 03:32:00,VALID,917.503,VALID,0,VALID,100,VALID,-0.0339617,VALID,18.9196,VALID,35,VALID,0.38244,
2005-10-16, 03:33:00,VALID,917.5,VALID,0,VALID,100,VALID,-0.0169808,VALID,18.9296,VALID,347,VALID,0.536523,
2005-10-16, 03:34:00,VALID,917.506,VALID,0,VALID,100,VALID,0,VALID,18.9003,VALID,327,VALID,0.420967,
2005-10-16, 03:35:00,VALID,917.499,VALID,0,VALID,100,VALID,-0.0169808,VALID,18.9042,VALID,330,VALID,0.0216206,
2005-10-16, 03:36:00,VALID,917.498,VALID,0,VALID,100,VALID,-0.0169808,VALID,18.9137,VALID,342,VALID,0.286044,
2005-10-16, 03:37:00,VALID,917.495,VALID,0,VALID,100,VALID,-0.0169808,VALID,18.9395,VALID,19,VALID,1.12444,
2005-10-16, 03:38:00,VALID,917.513,VALID,0,VALID,100,VALID,-0.0169808,VALID,18.9559,VALID,17,VALID,1.08503,
2005-10-16, 03:39:00,VALID,917.507,VALID,0,VALID,100,VALID,-0.0169808,VALID,18.9611,VALID,22,VALID,0.873264,
2005-10-16, 03:40:00,VALID,917.486,VALID,0,VALID,100,VALID,-0.0509425,VALID,18.9584,VALID,9,VALID,0.891602,
2005-10-16, 03:41:00,VALID,917.448,VALID,0,VALID,100,VALID,-0.0339617,VALID,18.9427,VALID,3,VALID,0.803013,